This is the latest recevied weather packets stored in our database for station/object BRIVER. If no packets are shown the sender has not sent any weather packets the latest 10 day(s).
| Time | Temp. | Humidity | Pressure | Rain* | Wind** | Luminosity | Snow |
|---|---|---|---|---|---|---|---|
| 1778009129 | 11.11° C | 90% | 1013.2 hPa | 0 mm | - | - | - |
| 1778008830 | 10.56° C | 91% | 1013.1 hPa | 0 mm | - | - | - |
| 1778008771 | 10.56° C | 91% | 1013.1 hPa | 0 mm | - | - | - |
| 1778008530 | 10.56° C | 92% | 1013 hPa | 0 mm | - | - | - |
| 1778008230 | 10.56° C | 91% | 1013 hPa | 0 mm | - | - | - |
| 1778007929 | 10.56° C | 91% | 1013 hPa | 0 mm | - | - | - |
| 1778007691 | 11.11° C | 89% | 1013.1 hPa | 0 mm | - | - | - |
| 1778007629 | 11.11° C | 88% | 1013 hPa | 0 mm | - | - | - |
| 1778007329 | 11.67° C | 87% | 1013 hPa | 0 mm | - | - | - |
| 1778007151 | 11.67° C | 88% | 1013 hPa | 0 mm | - | - | - |
| 1778007029 | 11.11° C | 88% | 1013 hPa | 0 mm | - | - | - |
| 1778006729 | 11.11° C | 88% | 1013 hPa | 0 mm | - | - | - |
| 1778006611 | 11.11° C | 87% | 1012.9 hPa | 0 mm | - | - | - |
| 1778006430 | 11.11° C | 87% | 1013.1 hPa | 0 mm | - | - | - |
| 1778006129 | 11.11° C | 85% | 1013 hPa | 0 mm | - | - | - |
| 1778006071 | 11.11° C | 86% | 1013 hPa | 0 mm | - | - | - |
| 1778005830 | 11.11° C | 85% | 1013.1 hPa | 0 mm | - | - | - |
| 1778005530 | 11.67° C | 85% | 1013 hPa | 0 mm | - | - | - |
| 1778005230 | 12.22° C | 85% | 1013 hPa | 0 mm | - | - | - |
| 1778004991 | 12.22° C | 86% | 1013 hPa | 0 mm | - | - | - |
| 1778004929 | 12.22° C | 86% | 1012.9 hPa | 0 mm | - | - | - |
| 1778004630 | 12.22° C | 89% | 1012.8 hPa | 0 mm | - | - | - |
| 1778004450 | 12.22° C | 89% | 1012.7 hPa | 0 mm | - | - | - |
| 1778004330 | 12.22° C | 90% | 1012.7 hPa | 0 mm | - | - | - |
| 1778004030 | 12.22° C | 92% | 1012.7 hPa | 0 mm | - | - | - |
* Rain latest hour (hover to see other rain measurements)
** Current wind speed in m/s (hover to see current wind gust speed)